Weather History for Monett, MO

Change the Weather History Date:

Friday, January 18, 2013

  Actual Average (KJLN) Record (KJLN)
Temperature  
Mean Temperature 40 °F 35 °F  
Max Temperature 53 °F 45 °F 66 °F (1951)
Min Temperature 28 °F 25 °F -8 °F (1984)
Degree Days  
Heating Degree Days 24 30  
Month to date heating degree days 540  
Since 1 July heating degree days 2157  
Cooling Degree Days 0 0  
Month to date cooling degree days 0  
Year to date cooling degree days 0  
Moisture  
Dew Point 27 °F    
Average Humidity 62    
Maximum Humidity 86    
Minimum Humidity 35    
Precipitation  
Precipitation 0.00 in 0.07 in 0.94 in (1996)
Month to date precipitation 1.20  
Year to date precipitation 1.20  
Sea Level Pressure  
Sea Level Pressure 30.33 in    
Wind  
Wind Speed 10 mph (South)    
Max Wind Speed 22 mph    
Max Gust Speed 26 mph    
Visibility 10 miles    
Events      
T = Trace of Precipitation, MM = Missing Value Source: NWS Daily Summary

Daily Weather History Graph

Daily Weather History Graph

Search for Another Location

Airport:

Trip Planner

Search our weather history database for the weather conditions in past years. The results will help you decide how hot, cold, wet, or windy it might be!

Date:

Astronomy

Jan. 18, 2013 Rise Set
Actual Time 7:26 AM CST 5:26 PM CST
Civil Twilight 6:58 AM CST 5:54 PM CST
Nautical Twilight 6:27 AM CST 6:26 PM CST
Astronomical Twilight 5:56 AM CST 6:57 PM CST
Moon 11:18 AM CST (1/18) 12:05 AM CST (1/18)
Length of Visible Light 10h 55m
Length of Day
9h 59m
Waxing Crescent, 47% of the Moon is Illuminated
Jan 18
Waxing Crescent
Jan 18
First Quarter
Jan 26
Full
Feb 3
Last Quarter
Feb 10
New

Hourly Weather History & Observations

Time (CST) Temp. Windchill Dew Point Humidity Pressure Visibility Wind Dir Wind Speed Gust Speed Precip Events Conditions
12:15 AM 30.2 °F 25.4 °F 26.6 °F 86% 30.47 in 10.0 mi SSE 4.6 mph - N/A   Clear
12:35 AM 28.4 °F 21.2 °F 24.8 °F 86% 30.47 in 10.0 mi SSE 6.9 mph - N/A   Clear
12:55 AM 28.4 °F 21.2 °F 24.8 °F 86% 30.47 in 10.0 mi SE 6.9 mph - N/A   Clear
1:15 AM 30.2 °F 23.4 °F 24.8 °F 80% 30.47 in 10.0 mi SSE 6.9 mph - N/A   Clear
1:35 AM 30.2 °F 23.4 °F 24.8 °F 80% 30.47 in 10.0 mi SSE 6.9 mph - N/A   Clear
1:55 AM 30.2 °F 23.4 °F 24.8 °F 80% 30.47 in 10.0 mi SE 6.9 mph - N/A   Clear
2:15 AM 30.2 °F 23.4 °F 24.8 °F 80% 30.47 in 10.0 mi SE 6.9 mph - N/A   Clear
2:55 AM 30.2 °F 23.4 °F 24.8 °F 80% 30.47 in 10.0 mi SSE 6.9 mph - N/A   Clear
3:15 AM 30.2 °F 23.4 °F 26.6 °F 86% 30.47 in 10.0 mi SSE 6.9 mph - N/A   Clear
3:35 AM 30.2 °F 23.4 °F 24.8 °F 80% 30.47 in 10.0 mi SSE 6.9 mph - N/A   Clear
3:55 AM 30.2 °F 22.6 °F 24.8 °F 80% 30.46 in 10.0 mi SSE 8.1 mph - N/A   Clear
4:15 AM 30.2 °F 22.6 °F 24.8 °F 80% 30.45 in 10.0 mi SE 8.1 mph - N/A   Clear
4:35 AM 30.2 °F 22.6 °F 24.8 °F 80% 30.44 in 10.0 mi SE 8.1 mph - N/A   Clear
4:55 AM 30.2 °F 22.6 °F 24.8 °F 80% 30.43 in 10.0 mi SSE 8.1 mph - N/A   Clear
5:15 AM 30.2 °F 21.9 °F 24.8 °F 80% 30.43 in 10.0 mi SSE 9.2 mph - N/A   Clear
5:35 AM 32.0 °F 24.2 °F 26.6 °F 80% 30.43 in 10.0 mi SSE 9.2 mph - N/A   Clear
5:55 AM 32.0 °F 24.8 °F 26.6 °F 80% 30.42 in 10.0 mi SSE 8.1 mph - N/A   Clear
6:15 AM 32.0 °F 24.2 °F 24.8 °F 75% 30.42 in 10.0 mi SSE 9.2 mph - N/A   Clear
6:35 AM 32.0 °F 24.8 °F 26.6 °F 80% 30.41 in 10.0 mi SE 8.1 mph - N/A   Clear
6:55 AM 30.2 °F 22.6 °F 24.8 °F 80% 30.41 in 10.0 mi SE 8.1 mph - N/A   Clear
7:15 AM 30.2 °F 23.4 °F 24.8 °F 80% 30.41 in 10.0 mi SE 6.9 mph - N/A   Clear
7:35 AM 30.2 °F 24.3 °F 24.8 °F 80% 30.40 in 10.0 mi SSE 5.8 mph - N/A   Clear
7:55 AM 32.0 °F 25.6 °F 26.6 °F 80% 30.40 in 10.0 mi SSE 6.9 mph - N/A   Clear
8:15 AM 32.0 °F 25.6 °F 26.6 °F 80% 30.39 in 10.0 mi SSE 6.9 mph - N/A   Clear
8:35 AM 35.6 °F 28.0 °F 28.4 °F 75% 30.40 in 10.0 mi South 10.4 mph - N/A   Clear
8:55 AM 37.4 °F 30.8 °F 28.4 °F 70% 30.41 in 10.0 mi South 9.2 mph - N/A   Clear
9:15 AM 39.2 °F 31.2 °F 28.4 °F 65% 30.41 in 10.0 mi South 13.8 mph 17.3 mph N/A   Clear
9:55 AM 42.8 °F 35.8 °F 30.2 °F 61% 30.42 in 10.0 mi South 13.8 mph 20.7 mph N/A   Clear
10:15 AM 42.8 °F 36.2 °F 28.4 °F 57% 30.41 in 10.0 mi SSW 12.7 mph - N/A   Clear
10:35 AM 42.8 °F 35.8 °F 30.2 °F 61% 30.40 in 10.0 mi SSW 13.8 mph 20.7 mph N/A   Clear
10:55 AM 44.6 °F 37.4 °F 30.2 °F 57% 30.39 in 10.0 mi SSW 16.1 mph 20.7 mph N/A   Clear
11:15 AM 46.4 °F 39.8 °F 30.2 °F 53% 30.38 in 10.0 mi SSW 16.1 mph 23.0 mph N/A   Clear
11:35 AM 46.4 °F 39.8 °F 30.2 °F 53% 30.36 in 10.0 mi SSW 16.1 mph - N/A   Clear
11:55 AM 48.2 °F - 30.2 °F 50% 30.35 in 10.0 mi SSW 15.0 mph 23.0 mph N/A   Clear
12:15 PM 50.0 °F - 32.0 °F 50% 30.33 in 10.0 mi SSW 18.4 mph - N/A   Clear
12:35 PM 51.8 °F - 32.0 °F 47% 30.31 in 10.0 mi SW 16.1 mph - N/A   Clear
12:55 PM 51.8 °F - 30.2 °F 44% 30.30 in 10.0 mi SSW 18.4 mph 24.2 mph N/A   Clear
1:15 PM 51.8 °F - 30.2 °F 44% 30.29 in 10.0 mi SW 20.7 mph 24.2 mph N/A   Clear
1:35 PM 51.8 °F - 28.4 °F 41% 30.28 in 10.0 mi SSW 21.9 mph 26.5 mph N/A   Clear
1:55 PM 53.6 °F - 28.4 °F 38% 30.27 in 10.0 mi SSW 18.4 mph 25.3 mph N/A   Clear
2:15 PM 53.6 °F - 28.4 °F 38% 30.27 in 10.0 mi SSW 15.0 mph 25.3 mph N/A   Clear
2:35 PM 53.6 °F - 26.6 °F 35% 30.26 in 10.0 mi SSW 16.1 mph 25.3 mph N/A   Clear
2:55 PM 53.6 °F - 28.4 °F 38% 30.25 in 10.0 mi SW 15.0 mph 21.9 mph N/A   Clear
3:15 PM 53.6 °F - 28.4 °F 38% 30.25 in 10.0 mi SSW 18.4 mph 23.0 mph N/A   Clear
3:35 PM 53.6 °F - 28.4 °F 38% 30.25 in 10.0 mi SSW 11.5 mph 23.0 mph N/A   Clear
3:55 PM 53.6 °F - 28.4 °F 38% 30.24 in 10.0 mi SSW 15.0 mph 19.6 mph N/A   Clear
4:15 PM 53.6 °F - 28.4 °F 38% 30.23 in 10.0 mi SSW 13.8 mph - N/A   Clear
4:35 PM 51.8 °F - 28.4 °F 41% 30.23 in 10.0 mi SSW 10.4 mph - N/A   Clear
4:55 PM 51.8 °F - 26.6 °F 38% 30.22 in 10.0 mi South 15.0 mph - N/A   Clear
5:15 PM 50.0 °F - 26.6 °F 40% 30.22 in 10.0 mi South 12.7 mph - N/A   Clear
5:35 PM 48.2 °F - 26.6 °F 43% 30.22 in 10.0 mi SSW 18.4 mph 23.0 mph N/A   Clear
5:55 PM 46.4 °F 39.5 °F 26.6 °F 46% 30.21 in 10.0 mi South 17.3 mph - N/A   Clear
6:15 PM 44.6 °F 37.8 °F 26.6 °F 49% 30.21 in 10.0 mi South 15.0 mph - N/A   Clear
6:35 PM 44.6 °F 38.1 °F 26.6 °F 49% 30.21 in 10.0 mi South 13.8 mph - N/A   Clear
6:55 PM 44.6 °F 37.4 °F 28.4 °F 53% 30.20 in 10.0 mi South 16.1 mph - N/A   Clear
7:15 PM 44.6 °F 37.2 °F 28.4 °F 53% 30.20 in 10.0 mi South 17.3 mph - N/A   Clear
7:55 PM 44.6 °F 37.8 °F 28.4 °F 53% 30.19 in 10.0 mi South 15.0 mph - N/A   Clear
8:15 PM 42.8 °F 35.1 °F 28.4 °F 57% 30.19 in 10.0 mi South 16.1 mph 23.0 mph N/A   Clear
8:55 PM 42.8 °F 35.1 °F 28.4 °F 57% 30.19 in 10.0 mi South 16.1 mph - N/A   Clear
9:15 PM 42.8 °F 35.1 °F 28.4 °F 57% 30.19 in 10.0 mi South 16.1 mph - N/A   Clear
9:35 PM 41.0 °F 33.5 °F 28.4 °F 61% 30.19 in 10.0 mi South 13.8 mph 19.6 mph N/A   Clear
9:55 PM 41.0 °F 33.5 °F 28.4 °F 61% 30.19 in 10.0 mi South 13.8 mph - N/A   Clear
10:15 PM 41.0 °F 33.9 °F 28.4 °F 61% 30.18 in 10.0 mi South 12.7 mph - N/A   Clear
10:35 PM 41.0 °F 33.5 °F 28.4 °F 61% 30.18 in 10.0 mi SSW 13.8 mph - N/A   Clear
10:55 PM 41.0 °F 33.9 °F 28.4 °F 61% 30.18 in 10.0 mi South 12.7 mph - N/A   Clear
11:15 PM 41.0 °F 33.1 °F 28.4 °F 61% 30.18 in 10.0 mi SSW 15.0 mph - N/A   Clear
11:35 PM 41.0 °F 33.1 °F 28.4 °F 61% 30.17 in 10.0 mi South 15.0 mph - N/A   Clear
11:55 PM 41.0 °F 33.1 °F 28.4 °F 61% 30.17 in 10.0 mi South 15.0 mph - N/A   Clear